GW1795 Weather Reports


time (UTC)temp
C
wind
direction
speed
KPH
gust
KPH
rain 1hr
cm
rain 24hr
cm
rain mn
cm
humidity
%
barometer
mb
20260902184903 33 212 8.0 12.9 0.00 0.00 0.00 51 1014.3
20260902184358 35 293 3.2 11.3 0.00 0.00 0.00 49 1014.3
20260902183854 35 239 6.4 11.3 0.00 0.00 0.00 47 1014.4
20260902183350 35 240 6.4 11.3 0.00 0.00 0.00 49 1014.2
20260902182845 34 227 1.6 8.0 0.00 0.00 0.00 50 1014.7
20260902182342 34 228 6.4 17.7 0.00 0.00 0.00 52 1014.7
20260902181838 34 254 9.7 9.7 0.00 0.00 0.00 50 1014.6
20260902181334 34 239 11.3 14.5 0.00 0.00 0.00 50 1014.6
20260902180832 34 245 6.4 9.7 0.00 0.00 0.00 52 1014.6
20260902180329 34 267 3.2 9.7 0.00 0.00 0.00 52 1014.7
20260902175824 33 240 6.4 9.7 0.00 0.00 0.00 53 1014.8
20260902175319 34 248 12.9 16.1 0.00 0.00 0.00 51 1015.0
20260902174815 34 226 6.4 8.0 0.00 0.00 0.00 51 1014.8
20260902174311 33 264 3.2 6.4 0.00 0.00 0.00 53 1015.1
20260902173807 33 267 1.6 8.0 0.00 0.00 0.00 54 1015.1
20260902173307 33 238 3.2 9.7 0.00 0.00 0.00 54 1015.2
20260902172806 33 242 9.7 14.5 0.00 0.00 0.00 53 1015.4
20260902172301 33 268 6.4 14.5 0.00 0.00 0.00 52 1015.2
20260902171756 33 266 6.4 14.5 0.00 0.00 0.00 54 1015.3
20260902171251 33 248 4.8 8.0 0.00 0.00 0.00 55 1015.3
20260902170748 33 273 3.2 6.4 0.00 0.00 0.00 54 1015.1
20260902170243 33 219 4.8 6.4 0.00 0.00 0.00 56 1015.3
20260902165738 33 289 3.2 9.7 0.00 0.00 0.00 54 1015.3
20260902165238 33 215 6.4 16.1 0.00 0.00 0.00 54 1015.4
20260902164733 33 237 4.8 11.3 0.00 0.00 0.00 56 1015.2
20260902164232 33 213 4.8 8.0 0.00 0.00 0.00 55 1015.3
20260902163728 33 254 6.4 6.4 0.00 0.00 0.00 55 1015.3
20260902163227 32 239 3.2 6.4 0.00 0.00 0.00 56 1015.4
20260902162726 32 189 3.2 11.3 0.00 0.00 0.00 57 1015.3
20260902162221 32 228 8.0 14.5 0.00 0.00 0.00 55 1015.3
20260902161715 32 20 3.2 4.8 0.00 0.00 0.00 59 1015.6
20260902161211 32 236 6.4 14.5 0.00 0.00 0.00 57 1015.3
20260902160708 32 223 9.7 9.7 0.00 0.00 0.00 59 1015.3
20260902160202 32 190 4.8 4.8 0.00 0.00 0.00 59 1015.4
20260902155700 32 315 3.2 11.3 0.00 0.00 0.00 59 1015.4
20260902155159 32 187 4.8 9.7 0.00 0.00 0.00 60 1015.4
20260902154655 32 298 4.8 6.4 0.00 0.00 0.00 60 1015.5
20260902154155 31 252 4.8 6.4 0.00 0.00 0.00 61 1015.7
20260902153654 31 242 4.8 8.0 0.00 0.00 0.00 63 1015.7
20260902153149 31 265 4.8 6.4 0.00 0.00 0.00 62 1015.7
20260902152645 31 224 6.4 9.7 0.00 0.00 0.00 63 1015.6
20260902152141 30 242 9.7 9.7 0.00 0.00 0.00 63 1015.5
20260902151636 30 246 3.2 9.7 0.00 0.00 0.00 65 1015.6
20260902151136 31 260 6.4 9.7 0.00 0.00 0.00 63 1015.6
20260902150632 30 271 3.2 8.0 0.00 0.00 0.00 66 1015.6
20260902150127 30 230 9.7 17.7 0.00 0.00 0.00 64 1015.6
20260902145627 30 201 6.4 9.7 0.00 0.00 0.00 64 1015.8
20260902145127 30 238 4.8 8.0 0.00 0.00 0.00 65 1015.7
20260902144624 30 259 8.0 11.3 0.00 0.00 0.00 66 1015.6
20260902144124 30 230 6.4 11.3 0.00 0.00 0.00 65 1015.7
20260902143619 30 180 6.4 12.9 0.00 0.00 0.00 67 1015.4
20260902143114 30 174 4.8 8.0 0.00 0.00 0.00 66 1015.6
20260902142610 29 283 1.6 9.7 0.00 0.00 0.00 70 1015.5
20260902142106 29 231 8.0 14.5 0.00 0.00 0.00 68 1015.5
20260902141605 28 222 4.8 8.0 0.00 0.00 0.00 69 1015.4
20260902141100 28 206 6.4 8.0 0.00 0.00 0.00 70 1015.4
20260902140555 28 234 6.4 8.0 0.00 0.00 0.00 70 1015.2
20260902140051 28 250 4.8 6.4 0.00 0.00 0.00 69 1015.3
20260902135550 28 230 3.2 8.0 0.00 0.00 0.00 70 1015.5
20260902135050 28 220 8.0 11.3 0.00 0.00 0.00 68 1015.4
20260902134546 28 205 4.8 6.4 0.00 0.00 0.00 71 1015.4
20260902134047 27 233 6.4 12.9 0.00 0.00 0.00 70 1015.4
20260902133546 27 222 4.8 9.7 0.00 0.00 0.00 71 1015.4
20260902133041 28 209 6.4 9.7 0.00 0.00 0.00 70 1015.4
20260902132536 28 227 3.2 4.8 0.00 0.00 0.00 73 1015.5
20260902132032 27 221 3.2 8.0 0.00 0.00 0.00 72 1015.3
20260902131528 27 232 4.8 8.0 0.00 0.00 0.00 73 1015.3
20260902131028 27 253 8.0 14.5 0.00 0.00 0.00 73 1015.4
20260902130524 27 225 4.8 4.8 0.00 0.00 0.00 74 1015.3
20260902130019 27 231 3.2 12.9 0.00 0.00 0.00 73 1015.4
20260902125515 27 181 4.8 8.0 0.00 0.00 0.00 75 1015.2
20260902125010 26 207 4.8 8.0 0.00 0.00 0.00 75 1015.2
20260902124507 26 203 1.6 4.8 0.00 0.00 0.00 78 1015.2
20260902124001 26 185 1.6 9.7 0.00 0.00 0.00 79 1015.2
20260902123457 26 204 3.2 6.4 0.00 0.00 0.00 79 1015.1
20260902122956 25 194 1.6 3.2 0.00 0.00 0.00 80 1015.3
20260902122452 25 214 3.2 4.8 0.00 0.00 0.00 79 1015.1
20260902121947 26 193 3.2 6.4 0.00 0.00 0.00 78 1015.3
20260902121447 26 203 0.0 3.2 0.00 0.00 0.00 79 1015.1
20260902120942 26 187 3.2 3.2 0.00 0.00 0.00 79 1015.3
20260902120438 25 164 1.6 3.2 0.00 0.00 0.00 80 1015.2
20260902115938 25 170 3.2 4.8 0.00 0.00 0.00 82 1015.2
20260902115434 25 184 3.2 3.2 0.00 0.00 0.00 84 1015.0
20260902114931 24 148 3.2 4.8 0.00 0.00 0.00 85 1015.1
20260902114426 24 148 3.2 3.2 0.00 0.00 0.00 86 1015.1
20260902113926 23 153 1.6 3.2 0.00 0.00 0.00 88 1015.0
20260902113422 23 166 1.6 3.2 0.00 0.00 0.00 90 1015.2
20260902112921 23 137 1.6 3.2 0.00 0.00 0.00 92 1015.0
20260902112418 22 135 3.2 3.2 0.00 0.00 0.00 92 1014.9
20260902111914 22 133 3.2 3.2 0.00 0.00 0.00 92 1015.0
20260902111410 22 123 1.6 3.2 0.00 0.00 0.00 92 1014.9
20260902110906 22 118 1.6 3.2 0.00 0.00 0.00 91 1014.9
20260902110401 22 125 1.6 3.2 0.00 0.00 0.00 90 1014.9
20260902105901 23 131 1.6 1.6 0.00 0.00 0.00 90 1014.9
20260902105356 23 125 3.2 3.2 0.00 0.00 0.00 89 1014.6
20260902104851 23 123 4.8 4.8 0.00 0.00 0.00 89 1014.6
20260902104347 23 155 3.2 4.8 0.00 0.00 0.00 89 1014.7
20260902103847 23 169 1.6 3.2 0.00 0.00 0.00 88 1014.5
20260902103342 23 175 3.2 4.8 0.00 0.00 0.00 89 1014.5
20260902102837 23 159 3.2 3.2 0.00 0.00 0.00 90 1014.7
20260902102335 23 135 3.2 4.8 0.00 0.00 0.00 90 1014.6
20260902101830 23 137 1.6 4.8 0.00 0.00 0.00 90 1014.6
20260902101331 23 171 0.0 3.2 0.00 0.00 0.00 90 1014.6
20260902100830 22 156 1.6 3.2 0.00 0.00 0.00 91 1014.5
20260902100330 22 165 3.2 3.2 0.00 0.00 0.00 91 1014.5
20260902095825 22 165 3.2 3.2 0.00 0.00 0.00 92 1014.8
20260902095325 22 189 3.2 3.2 0.00 0.00 0.00 92 1014.6
20260902094819 22 153 1.6 3.2 0.00 0.00 0.00 92 1014.7
20260902094316 22 145 1.6 3.2 0.00 0.00 0.00 92 1014.5
20260902093815 23 155 3.2 3.2 0.00 0.00 0.00 92 1014.6
20260902093310 23 147 1.6 3.2 0.00 0.00 0.00 91 1014.7
20260902092809 23 121 0.0 3.2 0.00 0.00 0.00 89 1014.5
20260902092306 23 144 0.0 1.6 0.00 0.00 0.00 88 1014.7
20260902091805 23 154 1.6 3.2 0.00 0.00 0.00 88 1014.7
20260902091301 23 180 3.2 3.2 0.00 0.00 0.00 88 1014.7
20260902090758 23 164 1.6 3.2 0.00 0.00 0.00 88 1014.6
20260902090257 23 173 1.6 4.8 0.00 0.00 0.00 89 1014.7
20260902085756 23 156 3.2 3.2 0.00 0.00 0.00 90 1014.6
20260902085251 23 171 0.0 3.2 0.00 0.00 0.00 90 1014.6
20260902084747 22 175 3.2 4.8 0.00 0.00 0.00 92 1014.6
20260902084243 22 171 3.2 3.2 0.00 0.00 0.00 94 1014.5
20260902083738 22 147 3.2 3.2 0.00 0.00 0.00 94 1014.5
20260902083238 22 130 3.2 3.2 0.00 0.00 0.00 93 1014.4
20260902082732 22 129 0.0 3.2 0.00 0.00 0.00 93 1014.4
20260902082229 22 141 1.6 1.6 0.00 0.00 0.00 93 1014.5
20260902081725 22 154 0.0 3.2 0.00 0.00 0.00 93 1014.3
20260902081221 22 177 1.6 3.2 0.00 0.00 0.00 92 1014.2
20260902080715 22 149 1.6 1.6 0.00 0.00 0.00 92 1014.4
20260902080213 22 126 1.6 1.6 0.00 0.00 0.00 91 1014.5
20260902075712 23 139 1.6 3.2 0.00 0.00 0.00 91 1014.4
20260902075208 23 157 0.0 1.6 0.00 0.00 0.00 90 1014.2
20260902074708 23 154 0.0 1.6 0.00 0.00 0.00 90 1014.2
20260902074203 23 157 0.0 0.0 0.00 0.00 0.00 89 1014.2
20260902073658 23 129 0.0 1.6 0.00 0.00 0.00 89 1014.2
20260902073154 23 180 0.0 3.2 0.00 0.00 0.00 89 1014.4
20260902072651 23 176 0.0 3.2 0.00 0.00 0.00 88 1014.3
20260902072147 23 146 1.6 3.2 0.00 0.00 0.00 87 1014.4
20260902071642 23 89 0.0 1.6 0.00 0.00 0.00 86 1014.3
20260902071137 24 104 1.6 3.2 0.00 0.00 0.00 85 1014.3
20260902070633 24 136 1.6 3.2 0.00 0.00 0.00 85 1014.2
20260902070133 24 171 1.6 3.2 0.00 0.00 0.00 84 1014.3
20260902065631 24 170 0.0 3.2 0.00 0.00 0.00 84 1014.1
20260902065128 24 150 0.0 0.0 0.00 0.00 0.00 84 1014.2
20260902064623 25 137 0.0 1.6 0.00 0.00 0.00 83 1014.1
20260902064118 25 215 0.0 3.2 0.00 0.00 0.00 83 1014.1
20260902063613 25 205 0.0 1.6 0.00 0.00 0.00 83 1014.0
20260902063108 25 198 0.0 3.2 0.00 0.00 0.00 83 1014.2
20260902062607 25 221 1.6 3.2 0.00 0.00 0.00 83 1014.1
20260902062103 25 230 0.0 0.0 0.00 0.00 0.00 82 1014.2
20260902061602 25 212 0.0 1.6 0.00 0.00 0.00 82 1014.1
20260902061058 25 235 0.0 3.2 0.00 0.00 0.00 81 1014.2
20260902060554 25 240 0.0 3.2 0.00 0.00 0.00 80 1014.1
20260902060051 25 193 3.2 3.2 0.00 0.00 0.00 80 1014.1
20260902055546 25 220 3.2 3.2 0.00 0.00 0.00 80 1014.2
20260902055042 25 186 0.0 3.2 0.00 0.00 0.00 80 1014.2
20260902054536 25 224 3.2 3.2 0.00 0.00 0.00 80 1014.2
20260902054032 25 199 3.2 3.2 0.00 0.00 0.00 80 1014.1
20260902053527 25 200 3.2 4.8 0.00 0.00 0.00 80 1014.2
20260902053026 25 192 3.2 3.2 0.00 0.00 0.00 79 1013.9
20260902052521 26 165 1.6 4.8 0.00 0.00 0.00 79 1013.9
20260902052017 26 203 3.2 3.2 0.00 0.00 0.00 79 1013.9
20260902051517 26 209 3.2 3.2 0.00 0.00 0.00 78 1013.7
20260902051015 26 198 3.2 4.8 0.00 0.00 0.00 79 1014.0
20260902050510 26 195 0.0 3.2 0.00 0.00 0.00 79 1013.9
20260902050008 26 185 3.2 3.2 0.00 0.00 0.00 79 1014.0
20260902045500 26 185 1.6 3.2 0.00 0.00 0.00 79 1013.9
20260902044957 26 177 1.6 4.8 0.00 0.00 0.00 79 1014.0
20260902044452 26 185 1.6 3.2 0.00 0.00 0.00 78 1014.0
20260902043947 26 188 1.6 3.2 0.00 0.00 0.00 78 1014.0
20260902043442 26 129 0.0 3.2 0.00 0.00 0.00 78 1013.9
20260902042937 26 192 3.2 3.2 0.00 0.00 0.00 77 1014.0
20260902042437 26 246 1.6 6.4 0.00 0.00 0.00 77 1014.0
20260902041932 26 230 0.0 3.2 0.00 0.00 0.00 77 1014.0
20260902041427 26 215 0.0 8.0 0.00 0.00 0.00 77 1014.0
20260902040926 26 215 0.0 3.2 0.00 0.00 0.00 77 1014.0
20260902040421 27 297 3.2 4.8 0.00 0.00 0.00 76 1013.9
20260902035920 27 224 4.8 4.8 0.00 0.00 0.00 76 1013.8
20260902035416 27 221 4.8 6.4 0.00 0.00 0.00 76 1013.7
20260902034915 27 227 3.2 8.0 0.00 0.00 0.00 75 1013.8
20260902034410 27 255 3.2 6.4 0.00 0.00 0.00 75 1013.8
20260902033909 27 240 3.2 9.7 0.00 0.00 0.00 75 1013.7
20260902033408 27 221 9.7 9.7 0.00 0.00 0.00 75 1013.9
20260902032908 27 222 6.4 12.9 0.00 0.00 0.00 75 1013.7
20260902032402 27 228 4.8 8.0 0.00 0.00 0.00 75 1014.0
20260902031857 27 216 8.0 9.7 0.00 0.00 0.00 76 1014.0
20260902031353 27 228 3.2 6.4 0.00 0.00 0.00 76 1013.9
20260902030848 27 203 1.6 6.4 0.00 0.00 0.00 75 1014.0
20260902030342 27 219 3.2 6.4 0.00 0.00 0.00 75 1013.8
20260902025842 27 219 6.4 8.0 0.00 0.00 0.00 75 1014.0
20260902025338 27 218 4.8 9.7 0.00 0.00 0.00 75 1014.0
20260902024838 27 229 6.4 9.7 0.00 0.00 0.00 74 1014.0
20260902024333 27 218 8.0 11.3 0.00 0.00 0.00 74 1013.8
20260902023828 27 233 8.0 9.7 0.00 0.00 0.00 74 1013.7
20260902023324 27 232 8.0 9.7 0.00 0.00 0.00 74 1013.8
20260902022822 27 249 3.2 8.0 0.00 0.00 0.00 74 1014.0
20260902022318 27 221 3.2 4.8 0.00 0.00 0.00 74 1014.0
20260902021815 27 215 3.2 3.2 0.00 0.00 0.00 74 1014.0
20260902021309 27 240 3.2 4.8 0.00 0.00 0.00 73 1013.8
20260902020805 28 198 1.6 3.2 0.00 0.00 0.00 73 1013.8
20260902020301 28 218 3.2 4.8 0.00 0.00 0.00 72 1014.0
20260902015755 28 226 3.2 4.8 0.00 0.00 0.00 72 1013.9
20260902015252 28 211 3.2 4.8 0.00 0.00 0.00 72 1013.8
20260902014747 28 206 3.2 6.4 0.00 0.00 0.00 71 1013.8
20260902014244 28 180 1.6 4.8 0.00 0.00 0.00 71 1013.7
20260902013742 28 193 3.2 6.4 0.00 0.00 0.00 72 1014.1
20260902013238 28 220 4.8 4.8 0.00 0.00 0.00 73 1013.9
20260902012733 27 172 3.2 4.8 0.00 0.00 0.00 74 1013.8
20260902012229 27 167 1.6 1.6 0.00 0.00 0.00 76 1013.8
20260902011724 27 200 0.0 3.2 0.00 0.00 0.00 78 1013.7
20260902011224 27 167 0.0 1.6 0.00 0.00 0.00 78 1013.9
20260902010723 27 178 1.6 3.2 0.00 0.00 0.00 78 1013.8
20260902010219 27 182 0.0 1.6 0.00 0.00 0.00 79 1013.6
20260902005717 27 205 0.0 0.0 0.00 0.00 0.00 76 1013.7
20260902005213 27 217 0.0 0.0 0.00 0.00 0.00 76 1013.5
20260902004713 28 154 0.0 1.6 0.00 0.00 0.00 77 1013.5
20260902004208 28 167 1.6 1.6 0.00 0.00 0.00 73 1013.6
20260902003703 29 205 0.0 0.0 0.00 0.00 0.00 69 1013.5
20260902003159 29 343 0.0 0.0 0.00 0.00 0.00 68 1013.6
20260902002655 30 195 1.6 1.6 0.00 0.00 0.00 66 1013.6
20260902002154 30 205 1.6 3.2 0.00 0.00 0.00 65 1013.8
20260902001650 30 194 1.6 4.8 0.00 0.00 0.00 65 1013.7
20260902001149 30 225 1.6 4.8 0.00 0.00 0.00 64 1013.7
20260902000645 30 225 1.6 3.2 0.00 0.00 0.00 64 1013.7
20260902000140 30 209 3.2 4.8 0.00 0.00 0.00 64 1013.7
20260901235639 30 228 4.8 6.4 0.00 0.00 0.00 63 1013.8
20260901235135 31 202 4.8 8.0 0.00 0.00 0.00 63 1013.8
20260901234634 31 237 4.8 4.8 0.00 0.00 0.00 62 1013.9
20260901234129 31 205 3.2 6.4 0.00 0.00 0.00 62 1013.9
20260901233624 31 216 4.8 8.0 0.00 0.00 0.00 62 1014.0
20260901233120 31 217 6.4 8.0 0.00 0.00 0.00 62 1014.0
20260901232620 31 212 3.2 8.0 0.00 0.00 0.00 62 1014.1
20260901232115 31 212 3.2 4.8 0.00 0.00 0.00 62 1014.1
20260901231612 31 214 4.8 8.0 0.00 0.00 0.00 61 1014.0
20260901231108 31 213 3.2 6.4 0.00 0.00 0.00 61 1014.2
20260901230604 31 192 8.0 9.7 0.00 0.00 0.00 60 1014.2
20260901230103 32 246 9.7 11.3 0.00 0.00 0.00 59 1014.1
20260901225558 32 227 4.8 9.7 0.00 0.00 0.00 59 1014.1
20260901225058 32 210 6.4 12.9 0.00 0.00 0.00 59 1014.1
20260901224554 32 237 6.4 17.7 0.00 0.00 0.00 58 1014.1
20260901224050 32 188 3.2 8.0 0.00 0.00 0.00 59 1014.1
20260901223545 32 203 4.8 12.9 0.00 0.00 0.00 58 1014.2
20260901223041 32 216 9.7 12.9 0.00 0.00 0.00 57 1014.1
20260901222537 32 234 3.2 9.7 0.00 0.00 0.00 58 1014.1
20260901222032 32 232 6.4 11.3 0.00 0.00 0.00 56 1014.2
20260901221528 33 249 1.6 9.7 0.00 0.00 0.00 55 1014.5
20260901221024 33 240 6.4 14.5 0.00 0.00 0.00 57 1014.1
20260901220523 33 237 8.0 14.5 0.00 0.00 0.00 56 1014.3
20260901220022 33 248 9.7 9.7 0.00 0.00 0.00 56 1014.2
20260901215520 32 235 8.0 17.7 0.00 0.00 0.00 57 1014.3
20260901215020 33 225 6.4 16.1 0.00 0.00 0.00 56 1014.3
20260901214519 33 192 8.0 9.7 0.00 0.00 0.00 55 1014.3
20260901214014 32 219 6.4 12.9 0.00 0.00 0.00 56 1014.4
20260901213513 32 215 6.4 12.9 0.00 0.00 0.00 56 1014.5
20260901213008 32 229 6.4 6.4 0.00 0.00 0.00 57 1014.2
20260901212503 32 212 6.4 9.7 0.00 0.00 0.00 57 1014.3
20260901211959 32 233 6.4 8.0 0.00 0.00 0.00 56 1014.2
20260901211454 32 228 4.8 9.7 0.00 0.00 0.00 57 1014.3
20260901210950 32 227 3.2 9.7 0.00 0.00 0.00 56 1014.4
20260901210446 33 250 12.9 12.9 0.00 0.00 0.00 55 1014.5
20260901205942 33 192 4.8 8.0 0.00 0.00 0.00 54 1014.4
20260901205442 32 242 6.4 14.5 0.00 0.00 0.00 55 1014.6
20260901204937 33 207 3.2 8.0 0.00 0.00 0.00 54 1014.5
20260901204434 33 259 4.8 9.7 0.00 0.00 0.00 54 1014.4
20260901203933 33 246 6.4 9.7 0.00 0.00 0.00 53 1014.4
20260901203428 33 246 4.8 17.7 0.00 0.00 0.00 55 1014.5
20260901202923 33 239 8.0 12.9 0.00 0.00 0.00 54 1014.3
20260901202418 33 234 8.0 9.7 0.00 0.00 0.00 53 1014.3
20260901201914 33 251 3.2 16.1 0.00 0.00 0.00 54 1014.2
20260901201414 33 216 6.4 16.1 0.00 0.00 0.00 52 1014.3
20260901200914 33 238 4.8 12.9 0.00 0.00 0.00 53 1014.3
20260901200409 33 252 9.7 14.5 0.00 0.00 0.00 52 1014.2
20260901195908 33 219 11.3 19.3 0.00 0.00 0.00 52 1014.3
20260901195407 33 212 8.0 20.9 0.00 0.00 0.00 53 1014.2
20260901194902 33 214 12.9 19.3 0.00 0.00 0.00 52 1014.2
20260901194356 33 222 9.7 14.5 0.00 0.00 0.00 53 1014.1
20260901193853 33 238 19.3 24.1 0.00 0.00 0.00 52 1014.1
20260901193352 33 184 6.4 20.9 0.00 0.00 0.00 53 1014.2
20260901192852 33 233 11.3 16.1 0.00 0.00 0.00 53 1013.9
20260901192347 33 204 9.7 17.7 0.00 0.00 0.00 54 1014.0
20260901191844 32 265 6.4 14.5 0.00 0.00 0.00 54 1014.1
20260901191338 32 288 3.2 16.1 0.00 0.00 0.00 55 1014.0
20260901190835 32 228 9.7 14.5 0.00 0.00 0.00 57 1014.0
20260901190329 32 184 14.5 16.1 0.00 0.00 0.00 60 1014.0
20260901185827 32 185 6.4 16.1 0.00 0.00 0.00 63 1014.2
20260901185326 31 156 6.4 9.7 0.00 0.00 0.00 67 1014.3